Home > Weather > Valletta > Past weeks

Flag for Malta Weather for the Past 2 Weeks in Valletta, Malta

Now
61 °F

Passing clouds.


Feels Like: 61 °F
Forecast: 57 / 65 °F
Wind: 17 mph from North

Location: Luqa

Current Time: May 1, 2016 at 9:45:36 PM

Latest Report: May 1, 2016 at 9:15 PM


Visibility: N/A

Pressure: 29.92 "Hg

Humidity: 83%

Dew Point: 55 °F

Location of VallettaLocation

Historic Weather in Valletta — Graph

°F

Valletta Temperature Yesterday

Maximum temperature yesterday: 72 °F (at 12:15 PM)
Minimum temperature yesterday: 61 °F (at 2:45 AM)
Average temperature yesterday: 65 °F

High & Low Weather Summary for the Past Weeks

 TemperatureHumidityPressure
High81 °F (Apr 18, 12:15 PM)100% (Apr 17, 3:45 AM)30.21 "Hg (Apr 17, 3:45 AM)
Low54 °F (Apr 26, 4:45 AM)32% (Apr 19, 5:45 PM)29.77 "Hg (Apr 24, 5:15 PM)
Average65 °F72%29.96 "Hg
* Reported Apr 16 8:15 PM — May 1 8:45 PM, Valletta, Weather by CustomWeather, © 2016

Note: Actual official high and low records may vary slightly from our data, if they occured in-between our weather recording intervals... More about our weather records

Advertising

Valletta Weather History for the Previous 24 Hours

Scroll right to see more
 ConditionsComfort  
Time TempWeatherWind HumidityBarometerVisibility
8:45 PM
Sun, May 1
63 °FPassing clouds.18 mph77%29.92 "HgN/A
8:15 PM63 °FPassing clouds.18 mph77%29.89 "HgN/A
7:45 PM63 °FPassing clouds.20 mph77%29.89 "HgN/A
7:15 PM64 °FPassing clouds.18 mph73%29.89 "HgN/A
6:45 PM64 °FPassing clouds.18 mph68%29.89 "HgN/A
6:15 PM66 °FScattered clouds.17 mph68%29.89 "HgN/A
5:45 PM66 °FScattered clouds.17 mph73%29.89 "HgN/A
5:15 PM68 °FScattered clouds.17 mph64%29.86 "HgN/A
4:45 PM68 °FScattered clouds.16 mph69%29.86 "HgN/A
4:15 PM70 °FScattered clouds.14 mph60%29.86 "HgN/A
3:45 PM70 °FPartly sunny.14 mph64%29.86 "HgN/A
3:15 PM70 °FPartly sunny.10 mph60%29.86 "HgN/A
2:45 PM70 °FScattered clouds.8 mph64%29.89 "HgN/A
2:15 PM70 °FPassing clouds.9 mph64%29.89 "HgN/A
1:45 PM70 °FPassing clouds.12 mph64%29.86 "HgN/A
1:15 PM70 °FPassing clouds.13 mph64%29.89 "HgN/A
12:45 PM70 °FPassing clouds.12 mph64%29.89 "HgN/A
12:15 PM70 °FPassing clouds.13 mph64%29.89 "HgN/A
11:45 AM68 °FPassing clouds.14 mph69%29.89 "HgN/A
11:15 AM68 °FPassing clouds.15 mph69%29.89 "HgN/A
10:45 AM68 °FPassing clouds.13 mph73%29.92 "HgN/A
10:15 AM66 °FScattered clouds.13 mph78%29.92 "HgN/A
9:45 AM66 °FPassing clouds.18 mph78%29.92 "HgN/A
9:15 AM64 °FScattered clouds.16 mph88%29.92 "HgN/A
8:45 AM63 °FPartly sunny.13 mph94%29.95 "HgN/A
8:15 AM63 °FScattered clouds.13 mph94%29.92 "HgN/A
7:45 AM63 °FScattered clouds.12 mph94%29.92 "HgN/A
7:15 AM63 °FScattered clouds.9 mph94%29.89 "HgN/A
6:15 AM63 °FPassing clouds.10 mph94%29.86 "HgN/A
5:45 AM63 °FPassing clouds.8 mph94%29.89 "HgN/A
5:15 AM63 °FPassing clouds.7 mph94%29.92 "HgN/A
4:15 AM63 °FPartly cloudy.8 mph88%29.86 "HgN/A
3:45 AM63 °FClear.7 mph88%29.89 "Hg10 mi
3:15 AM63 °FClear.7 mph88%29.89 "Hg10 mi
2:45 AM61 °FClear.5 mph94%29.95 "Hg10 mi
2:15 AM61 °FClear.7 mph94%29.95 "Hg10 mi
1:45 AM61 °FClear.8 mph94%29.95 "Hg10 mi
1:15 AM61 °FClear.10 mph94%29.95 "Hg10 mi
12:45 AM61 °FClear.10 mph94%29.95 "Hg10 mi
12:15 AM63 °FClear.10 mph88%29.95 "Hg10 mi
11:45 PM
Sat, Apr 30
63 °FClear.12 mph88%29.95 "Hg10 mi
11:15 PM63 °FClear.12 mph88%29.95 "Hg10 mi
10:45 PM63 °FClear.12 mph88%29.95 "Hg10 mi
10:15 PM63 °FClear.14 mph88%29.95 "Hg10 mi
9:45 PM63 °FClear.15 mph88%29.95 "Hg10 mi
9:15 PM63 °FClear.12 mph88%29.98 "Hg10 mi
Weather by CustomWeather, © 2016

See weather overviewHow to use our weather pages